Location: Bernadets
(43.3537°N, 0.3167°E)
Time: 01:12:00
(UTC+00:00)

Cosmos 1447 Rocket - Pass Details

Date: 24 October 2021
Orbit: 954 x 996 km, 82.9° (Epoch: 06 December)

Event Time Altitude Azimuth Distance (km) Brightness Sun altitude
Rises 18:50:17 0° 351° (N) 3,643 7.6 -20.4°
Reaches altitude 10° 18:52:48 10° 352° (N) 2,692 6.9 -20.9°
Maximum altitude 18:58:57 89° 269° (W) 961 4.4 -22.0°
Drops below altitude 10° 19:05:06 10° 175° (S) 2,681 6.7 -23.1°
Sets 19:07:35 0° 175° (S) 3,627 7.4 -23.6°
